Regional Weather Roundup
Issued by NWS Charleston, WV

Home | Current Version | Previous Version | Text Only | Print | Product List | Glossary Off
Versions: 1 2 3 4 5 6 7 8 9 10 11 12 13 14 15 16 17 18 19 20 21 22 23 24 25 26 27 28 29 30 31 32 33 34 35 36 37 38 39 40 41 42 43 44 45 46 47 48 49 50

000
ASUS41 KRLX 171210
RWRRLX
West Virginia Regional Weather Roundup
National Weather Service Charleston WV
700 AM EST WED DEC 17 2014

Note: "fair" indicates few or no clouds below 12,000 feet with no
significant weather and/or obstructions to visibility.

WVZ003-171300-
Northern Panhandle of West Virginia

CITY           SKY/WX    TMP DP  RH WIND       PRES   REMARKS
WHEELING       CLOUDY    35  31  85 W15G23    30.04R
$$

WVZ009-171300-
Northwest West Virginia

CITY           SKY/WX    TMP DP  RH WIND       PRES   REMARKS
PARKERSBURG    LGT RAIN  36  31  82 W10G20    30.15R
$$

WVZ006-171300-
Western West Virginia

CITY           SKY/WX    TMP DP  RH WIND       PRES   REMARKS
HUNTINGTON     CLOUDY    36  33  89 W9        30.17R
$$

WVZ015-171300-
West Central West Virginia

CITY           SKY/WX    TMP DP  RH WIND       PRES   REMARKS
CHARLESTON     LGT RAIN  38  34  85 W15G21    30.15R
$$

WVZ022-031-171300-
North Central West Virginia

CITY           SKY/WX    TMP DP  RH WIND       PRES   REMARKS
CLARKSBURG     LGT RAIN  38  36  92 W7        30.06R
MORGANTOWN     CLOUDY    39  31  72 VRB5      30.05R
$$

WVZ025-035-042-045-171300-
Southern West Virginia

CITY           SKY/WX    TMP DP  RH WIND       PRES   REMARKS
BECKLEY        LGT RAIN  36  34  92 W10G16    30.08R
LOGAN          CLOUDY    37  37 100 VRB6G13   30.12R
BLUEFIELD      CLOUDY    38  34  85 W13       30.07R
LEWISBURG      CLOUDY    40  35  83 W3        30.05R
$$

WVZ047-171300-
Northern Mountains of West Virginia

CITY           SKY/WX    TMP DP  RH WIND       PRES   REMARKS
ELKINS         LGT RAIN  38  36  92 W9        30.04R
$$

WVZ052-171300-
Eastern Panhandle of West Virginia

CITY           SKY/WX    TMP DP  RH WIND       PRES   REMARKS
MARTINSBURG    CLOUDY    46  36  68 CALM      29.96R
PETERSBURG     PTCLDY    45  33  61 W9G21     29.98S
$$


USA.gov is the U.S. government's official web portal to all federal, state and local government web resources and services.